一网星座-0051星 (ONEWEB-0051 )

导读

ONEWEB-0051是英国OneWeb星座组网的低轨通信卫星,于2020年2月6日发射入轨。作为OneWeb全球卫星互联网系统的组成部分,它运行在近地轨道,为偏远地区、海上和空中用户提供高速宽带接入服务,助力构建覆盖全球的空天地一体化通信网络,推动全球互联基础设施建设。

基本信息
目录编号:
45155
目录名称:
ONEWEB-0051
国际标识:
2020-008AA
轨道中心:
EARTH
卫星名称:
一网星座-0051星
卫星全名:
一网星座-0051星 (ONEWEB-0051 )
卫星状态:
在轨 (已飞行2409 天)
发射日期:
2020-02-06 UTC
国别 :
英国 (GB)
星等 :
--
该卫星已列入 空间交会检测服务 Space Conjunction Data Service (SCDS) ,当前飞行风险评估等级: 无高风险
轨道信息
数据来源 国际轨道数据 AOE轨道数据
星历时间 2026-09-11T15:13:29+0800
5小时前
查看轨道信息
2026-09-05T12:00:00+0800
6天前
查看轨道信息
半长轴 7595.823km 7595.798km
偏心率 0.0001781 0.000193
轨道倾角 87.897° 87.897°
近地点辐角 101.448° 113.180°
升交点赤经 3.945° 5.161°
平近点角 258.684° 102.574°
近地点 1216.333km 1216.195km
远地点 1219.039km 1219.127km
周期 109.805分钟 109.804分钟
每日圈数 13.114162 13.114228
详细信息
平衡模式:
三轴稳定
覆盖范围:
全球
运营商:
一网卫星公司
运营商所在国:
英国
制造商(研发单位):
一网卫星公司
制造商所在国:
英国
使用方式:
暂无
卫星简介
OneWeb卫星网络由648颗重约125公斤的微型卫星组成,运行在1200公里的轨道上。 每颗卫星都能够提供至少每秒8千兆位的吞吐量,以使用其高吞吐量的Ku频段有效载荷为家庭和移动平台提供互联网接入。该卫星仍在工作。
2D轨道图
3D轨道图
轨道高度分析图
轨道倾角分析图
轨道综合分析图
查看轨道综合分析图
与全量物体交会距离演化趋势
与全量物体交会风险概率演化趋势